Location: Coopersdale
(40.3556°N, 78.9372°W)
Time: 20:04:33
(UTC+00:00)

Transit 4A - Pass Details

Date: 27 January 2021
Orbit: 866 x 978 km, 66.8° (Epoch: 26 February)

Event Time Altitude Azimuth Distance (km) Brightness Sun altitude
Rises 09:55:52 0° 318° (NW) 3,595 - -29.2°
Reaches altitude 10° 09:58:56 10° 304° (NW) 2,627 - -28.7°
Maximum altitude 10:03:32 23° 255° (WSW) 1,838 - -27.8°
Drops below altitude 10° 10:08:02 10° 205° (SSW) 2,555 - -26.9°
Exits shadow 10:10:12 - 194° (SSW) 3,215 10.6 -26.5°
Sets 10:10:59 0° 191° (S) 3,473 10.8 -26.4°
